This demonstration page uses our WeatherBlox Daily Observations layout. Learn more.

40.92945, -100.16068

Hourly Observations for April 14, 2018

Temp ( °F °C ) Dew Point ( °F °C ) Humidity (%) Winds ( mph kmh ) Pressure ( in mb ) Visibility ( mi km ) Precip ( " mm )
12:15 am 00:15 undefined 26 -3.5 23 -5 89 89 NNW 35 56 29.91 1013 N/A 0 0
12:35 am 00:35 undefined 26 -3.5 23 -5 89 89 NNW 35 56 29.91 1013 N/A 0 0
12:55 am 00:55 Cloudy 26 -3.6 23 -5 90 90 NNW 39 63 29.91 1013 N/A 0.01 0.254
1:15 am 01:15 Cloudy 26 -3.5 23 -4.8 91 91 NNW 31 50 29.91 1013 N/A 0 0
1:35 am 01:35 undefined 26 -3.6 23 -5 90 90 NNW 37 59 29.91 1013 N/A 0 0
1:55 am 01:55 undefined 26 -3.5 23 -5 89 89 NNW 32 52 29.91 1013 N/A 0 0
2:15 am 02:15 undefined 26 -3.5 23 -5 89 89 NNW 37 59 29.91 1013 N/A 0 0
2:35 am 02:35 undefined 26 -3.5 23 -5 89 89 N 39 63 29.91 1013 N/A 0 0
2:55 am 02:55 undefined 26 -3.5 23 -5 89 89 NNW 37 59 29.91 1013 N/A 0 0
3:15 am 03:15 undefined 26 -3.5 23 -5 89 89 N 43 69 29.91 1013 N/A 0 0
3:35 am 03:35 undefined 26 -3.5 23 -5 89 89 N 43 69 29.91 1013 N/A 0 0
3:55 am 03:55 undefined 26 -3.5 23 -5 89 89 N 38 61 29.91 1013 N/A 0 0
4:15 am 04:15 undefined 26 -3.5 23 -5 89 89 N 41 67 29.91 1013 N/A 0 0
4:35 am 04:35 undefined 26 -3.5 23 -5 89 89 N 35 56 29.91 1013 N/A 0 0
4:55 am 04:55 undefined 26 -3.6 23 -5 90 90 N 36 57 29.94 1014 N/A 0 0
5:15 am 05:15 Mostly Clear with Heavy Snow 26 -3.6 23 -5 90 90 N 35 56 29.94 1014 0.5 0.80467 0 0
5:35 am 05:35 Mostly Clear with Heavy Snow 25 -3.7 23 -5.1 90 90 N 36 57 29.94 1014 0.25 0.402335 0 0
5:55 am 05:55 Mostly Clear with Heavy Snow 25 -3.8 23 -5.1 91 91 N 36 57 30 1016 0.5 0.80467 0 0
6:15 am 06:15 Mostly Clear with Heavy Snow 25 -3.8 23 -5.2 90 90 N 33 54 30 1016 0.5 0.80467 0 0
6:35 am 06:35 Mostly Clear with Heavy Snow 25 -4 22 -5.5 89 89 N 35 56 30.03 1017 0.5 0.80467 0 0
6:55 am 06:55 Mostly Clear with Snow 25 -4 22 -5.5 89 89 N 33 54 30.03 1017 0.5 0.80467 0 0
7:15 am 07:15 Partly Cloudy with Snow 25 -3.8 22 -5.5 88 88 N 36 57 30.06 1018 0.25 0.402335 0 0
7:35 am 07:35 Partly Cloudy with Snow 25 -3.8 22 -5.6 87 87 N 37 59 30.06 1018 0.25 0.402335 0 0
7:55 am 07:55 Partly Cloudy with Snow 25 -3.8 22 -5.7 87 87 NNW 32 52 30.06 1018 0.25 0.402335 0 0
8:15 am 08:15 Partly Cloudy with Snow 25 -3.8 22 -5.7 87 87 N 37 59 30.09 1019 0.25 0.402335 0 0
8:35 am 08:35 Partly Cloudy with Snow 25 -3.7 22 -5.7 86 86 N 37 59 30.09 1019 0.5 0.80467 0 0
8:55 am 08:55 Partly Cloudy with Snow 26 -3.5 22 -5.5 86 86 N 36 57 30.09 1019 0.25 0.402335 0 0
9:15 am 09:15 Partly Cloudy with Snow 26 -3.4 23 -5.2 88 88 N 35 56 30.09 1019 0.25 0.402335 0 0
9:35 am 09:35 Partly Cloudy with Heavy Snow 26 -3.2 23 -5 88 88 N 36 57 30.09 1019 5 8.0467 0 0
9:55 am 09:55 Partly Cloudy with Isolated Snow Showers 27 -2.8 23 -5.1 84 84 N 37 59 30.12 1020 0.25 0.402335 0 0
10:15 am 10:15 undefined 27 -2.8 22 -5.3 83 83 N 35 56 30.12 1020 N/A 0 0
10:35 am 10:35 undefined 27 -2.7 22 -5.5 81 81 N 35 56 30.12 1020 N/A 0 0
10:55 am 10:55 Partly Cloudy with Isolated Snow Showers 27 -2.8 22 -5.5 82 82 N 38 61 30.12 1020 0.75 1.207005 0 0
11:15 am 11:15 Mostly Cloudy 27 -2.8 22 -5.4 83 83 N 31 50 30.15 1021 N/A 0 0
11:35 am 11:35 Cloudy 27 -2.8 23 -5.1 84 84 N 29 46 30.15 1021 N/A 0 0
11:55 am 11:55 Cloudy 27 -2.7 23 -5.2 83 83 N 28 44 30.15 1021 N/A 0 0
12:15 pm 12:15 Cloudy 27 -3 23 -5.1 86 86 N 32 52 30.15 1021 N/A 0 0
12:35 pm 12:35 Cloudy 27 -3 22 -5.5 83 83 N 37 59 30.18 1022 N/A 0 0
12:55 pm 12:55 Cloudy 26 -3.2 22 -5.8 82 82 N 31 50 30.18 1022 N/A 0 0
1:15 pm 13:15 Cloudy 27 -3 22 -5.8 81 81 N 31 50 30.18 1022 N/A 0 0
1:35 pm 13:35 Cloudy 27 -3 21 -6.1 79 79 N 32 52 30.18 1022 N/A 0 0
1:55 pm 13:55 Cloudy 27 -2.7 22 -5.6 81 81 N 29 46 30.18 1022 N/A 0 0
2:15 pm 14:15 Cloudy 27 -2.7 22 -5.5 81 81 N 30 48 30.18 1022 N/A 0 0
2:35 pm 14:35 Cloudy 27 -2.8 22 -5.5 82 82 N 37 59 30.18 1022 N/A 0 0
2:55 pm 14:55 Cloudy 27 -2.8 22 -5.6 81 81 NNW 37 59 30.18 1022 N/A 0 0
3:15 pm 15:15 Cloudy 27 -3 21 -5.9 81 81 N 37 59 30.18 1022 N/A 0 0
3:35 pm 15:35 Cloudy 27 -3 21 -6.1 79 79 N 30 48 30.18 1022 N/A 0 0
3:55 pm 15:55 Cloudy 27 -3 21 -6.3 78 78 N 35 56 30.18 1022 N/A 0 0
4:15 pm 16:15 Cloudy 27 -3 21 -6 80 80 NNW 35 56 30.18 1022 N/A 0 0
4:35 pm 16:35 Cloudy 28 -2.4 21 -6.1 76 76 N 31 50 30.18 1022 N/A 0 0
4:55 pm 16:55 Cloudy 28 -2.3 21 -6.1 75 75 N 29 46 30.18 1022 N/A 0 0
5:15 pm 17:15 Cloudy 28 -2 21 -6.2 73 73 NNW 32 52 30.21 1023 10 16.0934 0 0
5:35 pm 17:35 Cloudy 28 -2.2 20 -6.4 73 73 N 32 52 30.21 1023 10 16.0934 0 0
5:55 pm 17:55 Cloudy 28 -2.1 21 -6.1 74 74 N 26 43 30.21 1023 10 16.0934 0 0
6:15 pm 18:15 Cloudy 28 -2.3 20 -6.7 72 72 N 33 54 30.21 1023 10 16.0934 0 0
6:35 pm 18:35 Cloudy 28 -2.3 20 -6.5 73 73 N 28 44 30.21 1023 10 16.0934 0 0
6:55 pm 18:55 Cloudy 28 -2.5 20 -6.4 75 75 N 26 43 30.24 1024 10 16.0934 0 0
7:15 pm 19:15 Cloudy 27 -2.6 20 -6.5 75 75 N 30 48 30.24 1024 10 16.0934 0 0
7:35 pm 19:35 Cloudy 27 -2.7 20 -6.4 76 76 N 24 39 30.24 1024 10 16.0934 0 0
7:55 pm 19:55 Cloudy 27 -2.8 20 -6.4 77 77 N 25 41 30.24 1024 10 16.0934 0 0
8:15 pm 20:15 Cloudy 27 -3 20 -6.4 78 78 N 25 41 30.24 1024 10 16.0934 0 0
8:35 pm 20:35 Cloudy 27 -3 20 -6.9 75 75 N 22 35 30.24 1024 10 16.0934 0 0
8:55 pm 20:55 Cloudy 26 -3.2 19 -7.2 74 74 N 23 37 30.24 1024 10 16.0934 0 0
9:15 pm 21:15 Cloudy 26 -3.3 19 -7.2 75 75 N 25 41 30.24 1024 10 16.0934 0 0
9:35 pm 21:35 Cloudy 26 -3.5 19 -7.1 76 76 N 23 37 30.27 1025 10 16.0934 0 0
9:55 pm 21:55 Cloudy 25 -3.7 19 -7.2 77 77 N 22 35 30.27 1025 10 16.0934 0 0
10:15 pm 22:15 Mostly Cloudy 25 -4 19 -7.3 78 78 N 16 26 30.27 1025 10 16.0934 0 0
10:35 pm 22:35 Cloudy 26 -3.6 19 -7 78 78 N 17 28 30.27 1025 10 16.0934 0 0
10:55 pm 22:55 Cloudy 25 -4 19 -7.5 77 77 N 18 30 30.27 1025 10 16.0934 0 0
11:15 pm 23:15 Partly Cloudy 24 -4.6 18 -8 77 77 N 16 26 30.3 1026 10 16.0934 0 0
11:35 pm 23:35 Mostly Cloudy 23 -5 18 -8 80 80 NNW 13 20 30.3 1026 10 16.0934 0 0
11:55 pm 23:55 Mostly Cloudy 23 -5.2 17 -8.1 80 80 N 14 22 30.3 1026 10 16.0934 0 0

Powered by AerisWeather